Location: Colorado Springs
(38.8340°N, 104.8210°W)
Time: 09:38:09
(UTC-06:00)

Vanguard 3 - Visible Passes

Search period start: 25 June 2018 00:00
Search period end: 05 July 2018 00:00
Orbit: 508 x 3264 km, 33.3° (Epoch: 24 June)

Date Brightness Start Highest point End Pass type
(mag) Time Alt. Az. Time Alt. Az. Time Alt. Az.
25 Jun 7.4 03:12:12 39° S 03:12:42 40° SSE 03:19:02 10° E visible
26 Jun 9.1 02:02:31 14° ESE 02:02:31 14° ESE 02:03:35 10° ESE visible
26 Jun 7.6 04:07:05 20° WSW 04:10:28 52° S 04:18:16 10° E visible
27 Jun 7.4 02:57:26 40° SSE 02:57:26 40° SSE 03:02:42 10° E visible
28 Jun 7.4 03:52:23 27° WSW 03:54:47 49° S 04:01:41 10° ESE visible
29 Jun 7.8 02:42:49 32° SE 02:42:49 32° SE 02:46:29 10° E visible
29 Jun 7.9 04:47:58 10° W 04:52:44 44° S 05:00:36 10° ESE visible
30 Jun 7.2 03:37:53 36° SW 03:39:08 45° S 03:45:14 10° ESE visible
01 Jul 8.5 02:28:25 20° ESE 02:28:25 20° ESE 02:30:23 10° ESE visible
01 Jul 7.8 04:33:01 12° WSW 04:37:03 37° S 04:43:49 10° SE visible
02 Jul 7.1 03:23:38 40° S 03:23:38 40° S 03:28:52 10° ESE visible
03 Jul 9.2 02:14:20 10° ESE 02:14:20 10° ESE 02:14:23 10° ESE visible
03 Jul 7.8 04:18:57 19° WSW 04:21:24 30° S 04:27:04 10° SE visible
04 Jul 8.0 03:09:45 25° SE 03:09:45 25° SE 03:12:35 10° ESE visible
